Regional Weather Roundup
Issued by NWS Pendleton, OR

Home | Current Version | Previous Version | Text Only | Print | Product List | Glossary On
Versions: 1 2 3 4 5 6 7 8 9 10 11 12 13 14 15 16 17 18 19 20 21 22 23 24 25 26 27 28 29 30 31 32 33 34 35 36 37 38 39 40 41 42 43 44 45 46 47 48 49 50
000
ASUS46 KPDT 291710
RWRPDT
PENDLETON REGIONAL WEATHER ROUNDUP
NATIONAL WEATHER SERVICE PENDLETON OREGON
1000 AM PDT SUN MAY 29 2016

NOTE: FAIR INDICATES FEW OR NO CLOUDS BELOW 12,000 FEET WITH NO
SIGNIFICANT WEATHER AND/OR OBSTRUCTIONS TO VISIBILITY.

# INDICATES UNOFFICIAL STATION AND DATA

WAZ520-291810-
EAST SLOPES OF WASHINGTON CASCADES

CITY            SKY/WX      TMP DP  RH  WIND    PRES   REMARKS
#CLE ELUM HS    N/A         56  40  55  W7      29.99S
#CLE ELUM 2NW   N/A         55  38  53  NW2     N/A
#GLENWOOD       N/A         59  45  60  W5      30.02S
#MANASTASH CYN  N/A         56  38  51  CALM    29.99S
#NELSON 3SW     N/A         54  40  59  CALM    30.20S
#NILE           N/A         59  42  53  W2      29.26F
#RONALD 2NW     N/A         56  N/A N/A NW2     29.91R
#TEANAWAY 4NE   N/A         59  44  57  W3      N/A
#TROUT LAKE 1NE N/A         57  44  62  W7      30.04S
$$

WAZ521-291810-
SIMCOE HIGHLANDS

CITY            SKY/WX      TMP DP  RH  WIND    PRES   REMARKS
#CENTERVILLE 1SWN/A         59  42  53  W22     29.98S
#GOLDENDALE 1NE N/A         60  32  35  SW9     N/A
#GOLDENDALE 4W  N/A         62  49  62  W17     30.08R
#GOODNOE HILLS  N/A         65  44  46  NW22G29 29.93F
#LYLE 6NE       N/A         57  44  62  W9      30.01S
$$

WAZ026-291810-
KITTITAS VALLEY

CITY            SKY/WX      TMP DP  RH  WIND    PRES   REMARKS
ELLENSBURG AP   PTCLDY      63  41  44  NW18    30.01S
#ELLENSBURG CWU N/A         61  41  48  N16     29.93S
#ELLENSBURG 3NE N/A         59  44  57  W7      30.01S
#ELLENSBURG     N/A         62  43  50  NW10    N/A
#ELLENSBURG 1E  N/A         60  N/A N/A NW3     N/A
#ELLENSBURG 13S N/A         65  42  43  S3      N/A
#KITTITAS 4N    N/A         60  40  47  W10     30.04S
#KITTITAS 3S    N/A         61  44  53  NW7     29.97F
#THORP 6N       N/A         54  41  61  W14G25  30.01F
$$

WAZ027-291810-
YAKIMA VALLEY

CITY            SKY/WX      TMP DP  RH  WIND    PRES   REMARKS
SUNNYSIDE AP    SUNNY       64  42  45  CALM    30.01F
YAKIMA AIRPORT  SUNNY       68  41  37  CALM    30.00F
YAKIMA-VAGABOND SUNNY       64  40  41  SE1     29.98F
#GRANDVIEW      N/A         66  41  40  W1      30.01F
#NACHES 2SW     N/A         64  41  43  N1      30.02S
#TERRACE HTS    N/A         65  44  46  CALM    29.94F
#TOPPENISH      N/A         64  43  46  W2      29.91S
#WEST VALLEY    N/A         64  44  48  CALM    29.96F
#W YAKIMA       N/A         66  45  47  S2      29.97F
#WHITE SWAN 5E  N/A         67  46  47  NW5     29.98F
#WILEY CITY 3W  N/A         64  40  41  CALM    29.98S
$$

WAZ028-291810-
LOWER COLUMBIA BASIN...WASHINGTON

CITY            SKY/WX      TMP DP  RH  WIND    PRES   REMARKS
HANFORD         MOSUNNY     68  39  35  W5      30.00S
PASCO           SUNNY       69  44  40  W5      30.01F
PROSSER AWOS    N/A         66  45  47  SE2     30.04F
RICHLAND AWOS   SUNNY       71  46  41  CALM    30.01S
#BENTON CITY    N/A         67  45  45  W3      29.90F
#CONNELL 5N     N/A         65  46  50  S6      29.98S
#CONNELL 5NW    N/A         64  48  56  SW5     29.95S
#ELTOPIA 6NW    N/A         64  47  54  CALM    28.98S
#KAHLOTUS       N/A         63  42  46  W10G24  29.97F
#KENNEWICK 3S   N/A         66  49  54  N7      30.00F
#PATERSON       N/A         66  47  50  NW13    29.99F
#SAGEMOOR 2W    N/A         65  47  52  S3      29.85S
#TOUCHET 2S     N/A         66  52  61  W6      29.98F
#WEST PASCO     N/A         71  51  49  CALM    30.08S
$$

WAZ029-291810-
FOOTHILLS OF THE BLUES...WASHINGTON

CITY            SKY/WX      TMP DP  RH  WIND    PRES   REMARKS
WALLA WALLA AP  PTCLDY      65  45  48  SW12    30.03S
#CLYDE 6NW      N/A         64  45  50  SW15    29.98F
#DAYTON SCHOOL  N/A         64  42  45  SW7     30.03S
#LOWDEN 2SE     N/A         68  50  53  W10     29.98S
#PLEASANT VIEW 1N/A         66  46  48  S9      30.02S
#PRESCOTT       N/A         67  49  52  SW5     30.00S
#SUDBURY        N/A         62  N/A N/A CALM    N/A
#WHITMAN COLLEGEN/A         66  47  50  S5      30.05S
#WAITSBURG 5S   N/A         63  49  60  SW7     30.09F
#WAITSBURG 8N   N/A         63  23  21  S10     29.88R
#WALLA WALLA U  N/A         67  48  50  S8      30.00F
#WHITMAN MISSIONN/A         68  51  55  SW9     30.02S
$$

WAZ030-291810-
BLUE MOUNTAINS...WASHINGTON

CITY            SKY/WX      TMP DP  RH  WIND    PRES   REMARKS
#DIXIE 5SE      N/A         57  46  67  SW13    29.98S
$$

ORZ009-041-WAZ024-291810-
COLUMBIA RIVER GORGE

CITY            SKY/WX      TMP DP  RH  WIND    PRES   REMARKS
HOOD RIVER AP   MOCLDY      61  46  58  NW14    30.09R
THE DALLES AP   SUNNY       67  44  43  NW20G30 30.05S
#ARLINGTON AIRPON/A         66  44  45  W18     30.02S
#CELILO DOT     N/A         69  46  44  W8      N/A
#LYLE           N/A         64  47  54  W13G24  30.06S
#MARYHILL 2W    N/A         65  45  48  W5      N/A
#MOSIER 1S      N/A         61  36  39  NW8     30.06S
#MURDOCK        N/A         64  48  56  NW18G25 30.01F
#RUFUS DOT      N/A         67  43  42  W16     N/A
#SMITHVILLE     N/A         66  47  50  W20G29  30.02F

$$

ORZ510-291810-
NORTH CENTRAL OREGON

CITY            SKY/WX      TMP DP  RH  WIND    PRES   REMARKS
#ANTELOPE       N/A         60  45  58  W3      29.88S
#CHENOWITH 1W   N/A         57  45  64  NW22    N/A
#COW CYN RST AREN/A         58  N/A N/A SW3     N/A
#DUFUR 9E       N/A         54  47  77  NW1     30.09S
#GRASS VALLEY   N/A         58  45  62  S3      N/A
#GRASS VALLEY 1SN/A         59  47  64  SW2     30.01S
#KENT DOT       N/A         59  38  45  N17     N/A
#MAUPIN SCHOOL  N/A         66  45  47  SW12    30.07F
#MORO SCHOOL    N/A         58  51  77  NW12    30.06S
#SHANIKO 4NW    N/A         54  -53  1  W6      30.07S
#TYGH VALLEY 2NEN/A         63  47  56  N1      30.02F
#WAPANITIA AIRPON/A         62  45  54  NW12    30.03S
#WASCO DOT      N/A         64  44  48  W12     N/A
#WASCO 5NE      N/A         63  47  56  SW6     30.02R
$$

ORZ511-291810-
CENTRAL OREGON

CITY            SKY/WX      TMP DP  RH  WIND    PRES   REMARKS
BEND AIRPORT    SUNNY       61  39  44  CALM    30.07F
MADRAS AIRPORT  SUNNY       64  46  52  MISG    30.09S
PRINEVILLE AP   SUNNY       61  41  48  VRB5    30.08S
REDMOND AIRPORT SUNNY       63  37  38  CALM    30.06F
#ASHWOOD SCHOOL N/A         61  44  53  NE2     30.02F
#BEND 1SW       N/A         60  43  53  SW2     N/A
#BEND-AWBREY    N/A         58  43  57  CALM    29.99S
#BEND-KIM LN    N/A         59  43  55  W1      30.06S
#CULVER         N/A         59  44  57  CALM    29.97F
#CULVER 8W      N/A         60  41  49  E2      30.06S
#LAKE BILLY CHINN/A         59  N/A N/A NE7     30.12F
#MADRAS 4S      N/A         61  14  16  CALM    30.12F
#POWELL BUTTE 3EN/A         56  43  62  W2      N/A
#POWELL BUTTE   N/A         66  47  50  N2      29.94F
#PRINEVILLE 3N  N/A         60  47  62  S3      29.99F

$$


ORZ509-291810-
EAST SLOPES OF OREGON CASCADES

CITY            SKY/WX      TMP DP  RH  WIND    PRES   REMARKS
SISTERS AWOS    N/A         61  36  39  W10     30.03F
#BLUE BOX PASS  N/A         47  N/A N/A NW3     N/A
#CAMP SHERMAN   N/A         62  41  46  SW1     30.07R
#LA PINE DOT    N/A         60  34  37  SW5     N/A
#LA PINE 4NW    N/A         57  39  51  SW2     30.04F
#LAVA BUTTE DOT N/A         56  35  45  S5      N/A
#SISTERS AIRPOR N/A         62  44  52  N8      30.17S
#SISTERS ODOT   N/A         62  N/A N/A W5      N/A
#SISTERS 3N     N/A         62  39  43  NW3     30.06S
#SUNRIVER       N/A         61  42  50  SW2     30.01F
#TUMALO 3W      N/A         59  42  53  E1      29.87F
#WANOGA BUTTE D N/A         51  29  42  W10     N/A

$$

ORZ044-291810-
LOWER COLUMBIA BASIN...OREGON

CITY            SKY/WX      TMP DP  RH  WIND    PRES   REMARKS
HERMISTON       SUNNY       70  44  39  W20     30.02S
#BOARDMAN SCHOOLN/A         68  46  45  SW10    30.01F
#ECHO 8SW       N/A         66  47  50  W6      30.03F
#I-84 EX 198 DOTN/A         65  45  48  E18     N/A
#UMATILLA SCHOOLN/A         69  55  61  W8      30.03S
#UMATILLA       N/A         67  45  45  W8      29.94F
$$

ORZ507-291810-
NORTHERN FOOTHILLS OF THE BLUES

CITY            SKY/WX      TMP DP  RH  WIND    PRES   REMARKS
PENDLETON AIRPT PTCLDY      67  42  40  SW15    30.03F
#ADAMS 3WNW     N/A         64  46  52  W8      30.01F
#ATHENA         N/A         62  47  58  SW2     30.03F
#CAYUSE         N/A         63  47  56  W7      30.01S
#HELIX SCHOOL   N/A         61  46  58  SW6     30.01F
#HELIX 3N       N/A         61  47  60  SW15    30.01S
#HELIX 6SW      N/A         62  46  56  W13     30.03
#HOLDMAN 5SE    N/A         64  47  54  W10     30.02F
#HOLDMAN 6E     N/A         61  47  60  NE6     29.82F
#M-F GROVE ELEM N/A         66  43  43  W7      30.01S
#M-FREEWATER 5SEN/A         65  47  52  SW2     30.03S
#PENDLETON DNTN N/A         69  44  40  SW3     30.04F
#PDT AQUATIC CTRN/A         65  45  48  W7      30.05S
#PDT SUNRIDGE   N/A         67  46  47  W7      30.05S
#PENDLETON 7NW  N/A         67  49  52  W12     31.97S
#PILOT ROCK 1S  N/A         64  44  48  W5      30.04F
#PILOT ROCK     N/A         66  45  47  E1      30.06S
#TUTUILLA       N/A         67  49  52  CALM    30.03F
#UMAPINE 2E     N/A         68  50  53  SW7     29.99F
#WESTON SCHOOL  N/A         61  42  50  NE3     29.94S

$$

ORZ508-291810-
SOUTHERN FOOTHILLS OF THE BLUES

CITY            SKY/WX      TMP DP  RH  WIND    PRES   REMARKS
LEXINGTON       MOSUNNY     64  45  50  VRB7    30.08F
#AJAX           N/A         60  41  49  S2      27.80F
#CONDON SCHOOL  N/A         56  45  66  SW5     30.02S
#CONDON 5W      N/A         56  42  59  SW8     30.03S
#FOSSIL SCHOOL  N/A         60  45  58  CALM    30.01S
#HEPPNER EOC    N/A         61  45  56  W6      29.95F
#HEPPNER 4NE    N/A         58  45  62  W2      30.01S
#LEXINGTON 2SE  N/A         65  46  50  W7      30.01S
#OLEX 4N        N/A         62  46  56  W14     30.03F
#RUGGS 5NE      N/A         61  42  50  W6      30.20S
#RUGGS 2SW      N/A         60  44  55  NW5     30.03S

$$

ORZ502-503-291810-
BLUE MOUNTAINS

CITY            SKY/WX      TMP DP  RH  WIND    PRES   REMARKS
MEACHAM         PTCLDY      56  39  53  VRB3    30.07S
#BATTLE MTN DOT N/A         56  47  72  N2      N/A
#CUTSFORTH PARK N/A         55  44  66  CALM    29.85S
#HARDMAN 10S    N/A         57  43  59  CALM    30.10F
#HEPPNER 15SE   N/A         54  44  69  SE3     29.99S
#LADD CYN SMT   N/A         59  37  44  N7      N/A
#LADD CREEK ODOTN/A         58  44  60  NE7     N/A
#LONG CREEK HS  N/A         56  45  66  CALM    N/A
#N POWDER DOT   N/A         61  40  46  N2      N/A
#PIKES PEAK     N/A         53  41  64  SW20    27.99S
#TOLLGATE       N/A         49  41  74  S2      29.94S
#TROY SCHOOL    N/A         62  47  58  CALM    29.83F
#UKIAH          N/A         58  46  64  CALM    29.94F
#WESTON 4E      N/A         57  46  67  SE2     29.98S
$$

ORZ505-291810-
JOHN DAY BASIN

CITY            SKY/WX      TMP DP  RH  WIND    PRES   REMARKS
JOHN DAY        N/A         N/A N/A N/A MISG    N/A
#DAYVILLE SCHOOLN/A         63  41  44  CALM    30.01F
#MITCHELL       N/A         64  48  56  CALM    30.20F
#MITCHELL 8NW   N/A         60  41  49  NW1     30.17F
#MONUMENT HS    N/A         63  41  44  CALM    29.98F
#MT. VERNON 5SE N/A         57  41  55  W1      30.03S
#SPRAY SCHOOL   N/A         67  N/A N/A CALM    N/A
#WINLOCK        N/A         65  42  43  E3      30.02F
$$

ORZ506-291810-
OCHOCO AND JOHN DAY HIGHLANDS

CITY            SKY/WX      TMP DP  RH  WIND    PRES   REMARKS
#BUCK CREEK DOT N/A         58  44  60  NW5     N/A
#HORSE RIDGE DO N/A         59  36  42  NW6     N/A
#KEYES SMT DOT  N/A         56  40  55  SW20    N/A
#PAULINA SCHOOL N/A         60  42  51  E3      N/A
#PINE MTN OBS   N/A         50  33  52  NW2     N/A
#PRAIRIE CITY   N/A         58  42  55  CALM    30.21F
#SENECA         N/A         57  N/A N/A CALM    N/A
#SENECA 9NW     N/A         53  39  59  CALM    30.01F
$$

ORZ049-291810-
GRANDE RONDE VALLEY

CITY            SKY/WX      TMP DP  RH  WIND    PRES   REMARKS
LA GRANDE       PTCLDY      61  39  44  N5      30.03F
#COVE           N/A         59  48  67  N2      30.07F
#COVE SCHOOL    N/A         62  47  58  CALM    30.06F
#COVE 6NW       N/A         58  44  60  CALM    29.93F
#ELGIN 3N       N/A         63  44  50  SW1     30.00F
#ELGIN 1E       N/A         62  45  54  CALM    N/A
#ISLAND CITY 4N N/A         58  52  80  CALM    30.15R
#LADD CYN DOT   N/A         61  46  58  NE2     N/A
#UNION 1S       N/A         60  44  55  W5      29.91S
$$

ORZ050-291810-
WALLOWA COUNTY

CITY            SKY/WX      TMP DP  RH  WIND    PRES   REMARKS
JOSEPH AIRPORT  PTCLDY      59  41  51  N5      N/A
#ENTERPRISE AP  N/A         49  29  46  CALM    29.99S
#ENTERPRISE HS  N/A         57  43  59  CALM    30.07S
#IMNAHA SCHOOL  N/A         64  46  52  N3      29.99F
#IMNAHA 10S     N/A         63  46  54  E1      30.00F
#JOSEPH 3N      N/A         56  41  57  CALM    30.07S
#JOSEPH 3W      N/A         56  43  62  NW3     29.90S
#LOSTINE 3SE    N/A         57  42  57  N5      30.05S
#MT HOWARD 8000 N/A         45  26  47  S5      30.16R
#PROMISE 1S     N/A         57  45  64  S2      30.08S
#WALLOWA SCHOOL N/A         58  44  60  CALM    30.01F



$$



USA.gov is the U.S. government's official web portal to all federal, state and local government web resources and services.